St George Airport
PAPB : now visible

Airfield :











YOU CAN JOIN US ON...

 
LOGIN :

Register | Disclaimer

   EN    FR    IT 

 









Legend :    VFR   Marginal VFR   IFR   Intensive IFR   Very Intensive IFR
Visi :
Ceiling :
>= 8 km
>= 3000ft
5 to 8 km
1000 to 3000 ft
1500m to 5 km
500 to 1000 ft
800 to 1500m
200 to 500 ft
< 800m
< 200 ft
Symbols :   Thunderstorms  Fog  Heavy snow  Heavy precipitations  Wind > 20 kt






- Airport Elevation : 125 ft
- IATA code : PBV


PAPB - St George

CURRENT METAR :
  • 202153Z AUTO 12011KT 10SM BKN012 12/07 A2984 RMK AO2 SLP093 T01170072 TSNO

EXPIRED METARs :
  • 202124Z AUTO 12014KT 10SM BKN011 11/07 A2985 RMK AO2 T01110072 TSNO
  • 202053Z AUTO 11011KT 10SM FEW009 11/07 A2984 RMK AO2 SLP093 T01110072 58005 TSNO
  • 202042Z AUTO 12010KT 10SM SCT009 11/07 A2984 RMK AO2 T01110072 TSNO
  • 201953Z AUTO 13014KT 10SM OVC008 10/07 A2985 RMK AO2 SLP095 T01000072 TSNO

TAF N/A
PAZA FIR / North America



MET'MAP, your aeronautical weather chart ! - Copyright ORBIFLY December 2007 - Disclaimer

ORBIFLY MET'MAP TEAM :

Programming & Development : Alexandra Zaïnal
Concept & original design : Baudouin d'Aumeries
Assistance for programming : Marc-Olivier Méhu
Technical & hardware support : Manuel Goepfert

Contact : metmap@orbifly.com




SOURCES & CREDITS :

   NOAA       Earth
Advisory